Вернуться в каталог

STARLINK-4159

АктивенСвязьVLEO
NORAD 53292·PAYLOAD·🇺🇸 United States

Запущен Jul 24, 2022 с Cape Canaveral Space Force Station

Loading…

Ближайшие Пролёты (ближайшие 24 часа)

TLE

СвежийSource: CelesTrak SupGP

Эпоха: Sep 14, 2026, 22:11 UTC

1 53292C 22086BC  26257.92479167  .00017608  00000+0  52032-3 0  2579
2 53292  53.1617  39.4651 0001078  70.6136 328.9236 15.34377845    14

Отслеживайте STARLINK-4159 в реальном времени с AllMySat

Download on the App Store